Temperature
2 3 3 3 3 3 3 4 4 5 5 6 5 5 4 3 3 3 3 2 2 3 3 3 4 4 5 5 5 5 5 5 5 5 5 5 5 5 5 5 5 5 4 4
1 2 2 2 2 3 3 3 4 4 4 5 4 3 3 3 2 2 2 2 2 2 2 3 4 4 4 5 5 5 5 5 5 5 5 5 5 4 4 4 4 4 4 4
1 2 2 2 2 2 2 3 3 3 3 3 2 2 2 2 2 1 1 1 1 2 2 3 3 3 4 4 4 4 4 4 4 4 4 4 4 4 4 4 4 4 4 4
0 1 0 2 1 1 1 1 1 1 1 1 1 1 1 1 1 0 0 0 0 1 2 2 2 3 3 3 3 3 3 3 4 4 4 4 3 3 3 3 3 4 4 4
-0 0 1 1 -0 -1 -0 0 0 0 0 -0 -1 0 1 0 -1 -1 -1 -0 0 1 1 2 2 2 2 2 3 3 3 3 3 3 3 3 3 3 3 3 3 3 3 3
-1 -0 -0 -1 -1 -1 -0 0 -0 -1 -1 -1 -1 1 1 -1 -1 -1 -1 -0 0 1 1 1 1 2 2 2 2 2 2 2 2 2 2 2 3 2 2 2 2 2 2 3
-1 -1 -1 -2 -2 -1 -1 -1 -2 -2 -2 -2 -2 -1 -2 -2 -2 -2 -1 -1 -0 0 0 0 1 1 1 1 1 2 2 2 2 2 2 2 2 2 2 2 2 2 2 2
-2 -2 -2 -2 -2 -2 -2 -3 -3 -3 -3 -3 -3 -3 -3 -3 -3 -2 -2 -1 -1 -1 -1 -0 -0 -0 0 1 1 1 1 1 1 1 1 1 1 1 1 1 1 1 1 1
-3 -3 -3 -4 -4 -4 -4 -4 -4 -4 -4 -4 -4 -4 -4 -3 -3 -3 -2 -2 -2 -2 -1 -1 -1 -1 -1 0 0 0 0 1 1 1 1 1 1 1 1 1 1 0 1 1
-3 -3 -4 -4 -4 -5 -5 -5 -5 -5 -5 -4 -4 -4 -4 -4 -4 -4 -3 -3 -3 -2 -2 -2 -2 -1 -1 -1 -1 -0 -0 -0 0 0 0 0 0 0 0 0 -0 -0 -0 -0
-4 -4 -4 -4 -5 -6 -6 -6 -5 -5 -5 -5 -5 -5 -5 -5 -5 -4 -4 -4 -3 -3 -3 -3 -2 -2 -2 -1 -1 -1 -1 -1 -1 -1 -0 -1 -1 -1 -1 -1 -1 -1 -1 -1
-5 -5 -6 -6 -6 -6 -6 -6 -6 -6 -6 -6 -6 -6 -5 -5 -5 -5 -5 -4 -4 -4 -4 -3 -3 -3 -2 -2 -2 -1 -1 -1 -1 -1 -1 -1 -1 -1 -1 -1 -1 -1 -1 -1
-7 -7 -7 -7 -7 -7 -7 -7 -7 -7 -6 -6 -6 -6 -6 -6 -6 -5 -5 -5 -5 -5 -5 -4 -4 -3 -3 -3 -2 -2 -2 -2 -2 -2 -2 -2 -2 -2 -2 -2 -2 -2 -2 -2
-8 -8 -8 -8 -8 -8 -8 -7 -7 -7 -7 -7 -7 -7 -6 -6 -6 -6 -6 -6 -5 -5 -5 -5 -5 -4 -4 -4 -3 -3 -3 -3 -3 -3 -3 -3 -3 -3 -3 -3 -3 -3 -3 -2
-8 -8 -8 -8 -8 -8 -8 -8 -8 -8 -8 -7 -7 -7 -7 -7 -7 -7 -7 -6 -6 -6 -6 -5 -5 -5 -5 -4 -4 -4 -4 -4 -4 -4 -4 -3 -3 -3 -3 -3 -3 -3 -3 -3
-8 -8 -9 -9 -9 -9 -9 -9 -9 -9 -8 -8 -8 -8 -8 -7 -7 -7 -7 -7 -7 -6 -6 -6 -6 -6 -6 -5 -5 -5 -5 -4 -4 -4 -4 -4 -4 -4 -4 -4 -4 -4 -4 -4
-9 -9 -10 -10 -10 -10 -9 -9 -9 -9 -9 -9 -8 -8 -8 -8 -8 -8 -8 -7 -7 -7 -7 -7 -6 -6 -6 -6 -6 -5 -5 -5 -5 -5 -5 -5 -5 -5 -5 -5 -5 -5 -4 -4
-10 -10 -10 -10 -10 -10 -10 -9 -9 -9 -9 -9 -9 -9 -8 -8 -9 -8 -8 -8 -8 -7 -7 -7 -7 -7 -6 -6 -6 -6 -6 -6 -5 -5 -5 -5 -5 -5 -5 -5 -5 -5 -5 -5
-10 -10 -10 -10 -10 -10 -10 -10 -10 -10 -9 -9 -9 -9 -9 -9 -9 -9 -9 -8 -8 -8 -8 -8 -7 -7 -7 -7 -6 -6 -6 -6 -6 -6 -6 -6 -6 -6 -6 -6 -6 -6 -5 -5
-10 -10 -10 -10 -10 -10 -10 -10 -10 -10 -10 -10 -10 -9 -9 -9 -9 -9 -9 -9 -9 -9 -8 -8 -8 -8 -7 -7 -7 -7 -7 -6 -6 -6 -6 -6 -6 -6 -6 -6 -6 -6 -6 -6
-11 -11 -11 -11 -11 -11 -11 -11 -11 -10 -10 -10 -10 -10 -10 -10 -9 -9 -9 -9 -9 -9 -9 -8 -8 -8 -8 -8 -8 -7 -7 -7 -7 -7 -7 -7 -7 -7 -7 -7 -7 -7 -6 -6
-11 -11 -11 -11 -11 -11 -11 -11 -11 -11 -11 -11 -10 -10 -10 -10 -10 -10 -10 -10 -10 -9 -9 -9 -9 -9 -9 -8 -8 -8 -8 -8 -8 -8 -8 -7 -7 -7 -7 -7 -7 -7 -7 -7
-11 -12 -12 -12 -12 -12 -11 -11 -11 -11 -11 -11 -11 -11 -11 -11 -10 -10 -10 -10 -10 -10 -10 -9 -9 -9 -9 -9 -9 -9 -8 -8 -8 -8 -8 -8 -8 -8 -8 -8 -8 -8 -8 -7
-12 -12 -12 -12 -12 -12 -12 -12 -12 -12 -12 -12 -11 -11 -11 -11 -11 -11 -11 -10 -10 -10 -10 -10 -10 -9 -9 -9 -9 -9 -9 -9 -9 -9 -8 -8 -8 -8 -8 -8 -8 -8 -8 -8
-12 -12 -12 -12 -12 -12 -12 -12 -12 -12 -12 -12 -11 -11 -12 -11 -11 -11 -11 -11 -10 -10 -10 -10 -10 -10 -10 -9 -9 -9 -9 -9 -9 -9 -9 -9 -9 -9 -8 -8 -8 -8 -8 -8
-13 -13 -13 -13 -13 -13 -13 -13 -12 -12 -12 -12 -12 -12 -12 -12 -11 -11 -11 -11 -11 -11 -10 -10 -10 -10 -10 -10 -10 -10 -10 -9 -9 -9 -9 -9 -9 -9 -9 -9 -9 -9 -8 -8
-13 -13 -13 -13 -13 -13 -13 -13 -13 -13 -13 -13 -12 -12 -12 -12 -12 -12 -11 -11 -11 -11 -11 -11 -11 -10 -10 -10 -10 -10 -10 -10 -10 -9 -9 -9 -9 -9 -9 -9 -9 -9 -9 -9
Wind_Speed
13 13 11 12 12 9 9 9 9 9 9 9 8 7 7 6 6 5 4 4 3 3 3 3 3 3 3 3 3 3 4 4 5 5 5 5 6 6 6 6 7 7 8 8
12 10 8 9 10 10 10 9 11 11 11 7 7 6 6 6 6 5 5 6 5 5 4 4 4 4 3 3 3 3 3 4 4 4 4 5 5 6 6 6 6 7 8 8
7 8 7 6 6 6 6 5 7 9 9 8 7 7 7 6 5 5 6 6 6 6 5 5 4 4 4 4 3 3 3 3 3 4 4 4 4 5 5 6 6 6 7 8
5 5 5 1 5 5 4 2 3 5 7 8 8 9 7 5 6 7 7 7 7 6 6 5 5 4 4 3 2 3 3 3 3 3 4 3 4 4 4 4 5 5 6 7
3 4 4 3 7 8 6 3 6 7 9 10 9 6 4 5 7 8 8 7 7 6 5 5 4 3 2 2 1 2 3 3 3 3 3 3 4 4 4 4 4 4 4 5
4 4 3 6 11 12 6 4 8 10 10 10 8 5 5 8 9 9 8 6 6 5 4 4 4 3 2 2 1 2 3 3 2 2 3 3 4 4 3 3 3 3 4 4
5 3 2 8 13 9 2 6 12 11 10 8 6 6 8 9 9 8 7 6 5 4 4 4 3 2 2 2 2 2 2 1 1 2 2 3 3 3 3 3 3 3 3 3
4 3 4 10 8 6 7 10 11 11 10 8 8 8 7 8 8 7 7 6 6 5 5 5 4 2 2 2 3 2 1 0 0 1 1 1 2 2 3 3 3 3 3 3
2 2 6 7 6 8 9 10 10 10 10 8 8 8 8 7 7 7 6 6 6 5 5 5 5 4 3 4 3 2 2 1 1 0 0 1 2 2 2 3 3 3 3 3
4 5 8 9 9 10 10 10 10 9 9 7 7 7 7 7 7 7 7 7 6 6 6 6 6 6 5 4 3 2 2 1 1 0 0 0 1 1 2 2 3 3 3 3
5 7 8 7 11 12 12 11 10 9 8 7 7 7 6 6 7 7 7 7 7 6 6 7 7 6 5 4 3 2 2 2 1 1 0 0 0 0 1 2 2 3 3 3
5 8 8 10 12 13 12 11 11 10 10 9 7 7 7 6 6 6 7 7 7 7 7 7 7 7 6 5 3 2 2 2 1 1 0 0 0 1 1 1 1 2 3 3
7 9 8 9 10 11 11 11 10 10 9 8 8 7 7 6 6 6 7 7 7 7 7 7 7 7 7 6 4 3 2 2 1 1 1 0 0 0 1 2 2 1 1 2
7 7 7 8 9 11 10 10 9 9 9 9 8 8 7 7 7 7 7 7 7 7 7 7 7 7 8 6 5 3 3 2 2 2 1 1 1 1 1 1 2 2 1 1
8 7 6 8 9 10 10 10 10 10 11 10 9 9 8 8 8 7 7 7 7 7 7 7 7 8 8 7 5 4 3 3 2 2 2 1 1 1 1 1 1 2 2 1
9 8 7 8 10 11 11 11 10 11 11 10 10 9 9 8 7 7 7 7 7 7 8 8 8 8 8 6 5 4 3 4 3 2 2 2 1 1 1 1 1 2 2 2
8 9 10 10 11 11 10 10 9 10 10 10 10 9 8 8 8 8 8 8 7 7 7 7 8 8 8 7 5 4 3 3 4 3 2 2 1 1 1 1 1 2 2 2
6 7 7 8 9 10 10 10 10 10 10 9 9 9 8 8 8 8 8 8 8 8 8 8 8 8 8 7 5 4 3 3 3 3 2 2 2 1 1 1 2 2 2 2
7 8 8 8 8 8 9 9 9 9 9 9 8 8 8 8 8 8 8 7 8 8 8 9 10 9 8 8 7 4 3 3 3 3 2 3 2 2 2 2 2 2 2 2
8 8 9 9 9 8 8 8 8 8 8 8 8 8 8 8 8 7 7 6 6 6 8 9 9 8 7 7 7 4 4 4 3 3 3 2 2 2 2 2 2 2 2 2
9 9 9 9 9 8 8 8 7 8 8 8 7 7 8 8 7 7 6 6 7 8 9 10 7 7 7 7 7 5 4 4 3 3 3 3 3 2 2 2 2 2 2 2
8 8 9 9 9 9 8 8 7 7 8 7 7 7 8 8 8 7 6 5 7 10 8 6 6 8 10 8 5 5 4 4 4 3 3 3 3 3 2 3 2 2 2 2
7 7 8 8 8 8 8 7 7 7 7 8 8 8 8 7 6 6 6 6 7 10 8 6 9 12 11 6 5 5 4 4 4 4 3 3 3 3 3 3 3 3 3 3
7 7 8 8 7 7 8 8 8 7 7 7 7 7 7 7 6 5 5 9 11 11 7 9 12 12 10 5 4 4 4 4 4 4 4 3 3 3 3 3 3 3 3 3
7 7 7 7 7 6 7 8 8 8 7 6 7 8 6 5 5 6 7 8 10 10 7 9 11 10 7 5 4 4 4 4 4 4 3 3 3 3 3 3 3 3 3 3
6 6 6 6 6 6 6 6 6 6 6 7 7 7 6 6 6 6 6 7 8 9 7 6 7 7 5 5 5 5 4 4 4 4 4 3 3 3 3 3 3 3 3 3
6 5 5 5 5 5 6 6 6 6 7 7 7 7 7 7 7 7 7 6 6 6 6 6 5 5 5 5 5 5 4 4 4 4 4 3 3 3 3 3 3 3 3 3
Wind_Direction
277 283 285 285 284 270 251 252 256 263 266 279 297 305 311 317 325 336 340 339 331 321 319 322 318 309 295 281 261 228 213 211 216 215 212 209 206 205 204 203 203 204 207 211
279 278 283 283 288 274 262 259 256 265 273 297 308 315 317 314 319 325 328 326 321 318 317 315 311 303 293 281 267 239 223 222 218 213 209 206 206 203 200 200 200 200 205 208
279 291 284 273 296 285 265 267 261 263 285 319 321 317 303 302 311 315 317 318 314 311 310 308 302 296 286 279 269 243 232 229 221 214 210 208 202 198 202 203 202 203 205 205
282 291 243 325 3 331 302 335 345 323 325 323 317 315 304 319 328 321 318 315 312 310 309 307 306 301 290 275 260 240 233 230 222 215 209 204 198 199 203 207 205 206 206 207
263 269 270 324 350 340 307 286 356 336 327 330 329 320 309 345 341 326 317 314 311 308 308 308 309 307 296 283 263 241 242 241 230 214 204 198 202 207 203 202 205 208 208 207
265 269 272 343 334 321 278 257 354 338 325 327 332 310 311 335 332 330 328 325 322 322 326 326 328 326 311 297 273 258 252 242 228 213 205 202 206 203 200 195 201 201 204 211
289 271 291 341 336 341 334 325 331 327 322 321 314 303 311 320 326 333 336 339 340 341 343 340 341 343 333 329 315 306 288 253 216 206 205 205 203 193 183 185 188 198 203 208
318 307 315 348 349 353 324 327 331 331 330 324 318 320 324 326 330 338 344 350 353 355 351 350 353 357 350 336 336 339 335 314 224 217 212 195 187 183 177 179 184 196 199 203
293 301 326 339 340 333 333 329 331 331 328 325 323 325 330 334 339 343 348 354 356 358 356 358 358 355 348 341 345 351 2 3 355 341 240 196 183 176 175 182 191 200 203 206
290 303 324 331 336 337 335 332 330 330 328 327 327 330 336 342 347 351 354 356 356 359 359 357 357 357 351 343 347 360 9 3 6 76 102 198 186 183 188 193 202 208 211 213
288 311 322 331 339 338 339 340 341 343 343 345 344 345 348 347 348 351 352 355 356 357 354 353 354 354 351 347 353 9 10 8 6 17 67 63 20 267 236 235 228 218 220 219
306 323 318 318 333 338 339 343 345 346 348 352 357 352 352 351 351 352 354 356 358 359 357 353 353 353 351 351 352 4 9 2 356 348 10 91 77 16 13 289 294 265 261 250
307 314 312 315 327 338 338 341 345 348 348 348 352 353 352 351 355 356 356 357 357 355 353 351 352 351 350 351 352 353 355 353 352 344 342 357 341 322 344 4 9 320 271 260
334 335 329 336 335 339 342 345 348 353 357 356 354 356 357 357 356 357 355 352 352 353 353 352 351 350 348 349 353 358 1 4 353 337 329 319 307 293 283 293 306 313 319 287
342 339 324 325 337 346 349 352 355 356 356 356 357 358 357 356 354 352 351 352 355 357 355 353 351 348 349 350 352 356 358 357 355 343 335 324 315 309 299 289 280 290 307 308
334 343 345 346 346 347 349 352 352 348 349 349 351 351 351 350 349 349 352 355 357 354 351 349 348 345 347 350 353 356 2 2 349 339 338 334 334 330 310 292 283 279 279 284
344 344 343 342 341 341 342 343 341 338 340 342 342 343 346 350 352 352 353 355 355 350 349 350 346 346 348 350 350 349 349 351 347 339 342 337 335 327 313 304 299 297 295 300
333 327 326 325 327 329 333 336 336 337 336 335 338 343 346 348 347 345 347 351 355 356 356 353 350 347 348 349 348 342 341 342 345 345 342 337 331 326 320 316 308 305 305 309
341 335 333 331 329 327 328 330 333 334 335 337 340 342 342 343 342 342 347 351 354 352 350 351 350 350 349 349 345 339 341 342 342 341 338 336 334 327 319 314 309 308 310 313
344 341 339 335 334 331 330 332 333 334 336 339 339 340 343 344 343 343 345 346 346 341 337 340 343 345 345 344 344 341 341 337 334 332 331 330 326 323 318 314 310 310 314 315
341 342 344 342 339 338 336 334 333 333 336 340 340 340 339 339 341 341 341 340 342 343 340 340 343 341 340 339 338 338 336 331 327 325 322 318 314 314 316 316 316 315 313 312
337 337 338 339 340 340 341 339 338 337 340 343 343 341 339 338 339 338 333 328 331 335 336 333 335 336 338 336 335 335 333 330 327 324 321 319 312 310 313 316 315 314 311 309
333 334 334 335 335 333 335 341 343 342 341 340 338 338 335 329 329 328 328 331 331 332 333 328 331 335 339 340 336 334 333 332 330 326 323 320 316 313 311 311 311 310 308 309
333 334 331 330 331 335 338 340 340 338 335 331 332 333 330 326 325 324 318 323 331 330 329 327 333 338 342 340 335 333 331 330 327 324 321 320 318 315 312 311 310 310 309 309
331 330 331 333 336 335 331 332 333 335 336 335 334 335 332 325 318 321 323 325 329 331 328 329 334 339 341 335 332 328 326 324 321 319 317 316 315 314 313 310 307 305 305 303
329 327 326 326 325 324 327 330 331 332 332 331 332 334 335 333 328 326 326 328 328 329 329 326 328 332 333 330 328 324 322 320 320 320 315 312 310 310 309 311 310 305 303 302
327 327 327 331 336 335 332 329 327 327 329 327 325 328 332 332 332 332 330 329 329 328 327 326 327 328 327 326 324 322 320 317 315 313 312 310 307 304 304 304 302 302 301 298
Height
1458 1456 1455 1453 1451 1449 1448 1444 1442 1435 1436 1436 1438 1439 1439 1438 1437 1436 1436 1435 1435 1434 1433 1433 1433 1433 1433 1433 1434 1435 1436 1437 1438 1439 1440 1441 1442 1444 1445 1447 1448 1450 1453 1454
1458 1453 1451 1450 1448 1447 1445 1444 1441 1439 1438 1439 1440 1440 1439 1437 1436 1435 1434 1434 1433 1432 1431 1431 1430 1430 1430 1430 1431 1432 1432 1433 1434 1435 1436 1437 1438 1440 1441 1442 1444 1446 1448 1450
1454 1451 1449 1447 1447 1447 1445 1443 1442 1439 1440 1441 1440 1439 1438 1437 1436 1435 1434 1432 1431 1430 1429 1428 1428 1428 1428 1428 1428 1428 1429 1430 1431 1431 1432 1433 1435 1436 1437 1438 1440 1442 1443 1445
1456 1453 1452 1449 1450 1449 1446 1446 1446 1445 1444 1442 1441 1439 1437 1436 1435 1433 1432 1431 1429 1428 1427 1426 1426 1426 1425 1425 1425 1425 1425 1426 1427 1428 1429 1430 1431 1432 1433 1435 1436 1437 1439 1441
1457 1451 1447 1450 1453 1453 1450 1446 1448 1446 1444 1443 1440 1437 1435 1434 1434 1433 1431 1429 1427 1426 1425 1424 1423 1423 1422 1422 1421 1421 1422 1422 1423 1424 1425 1426 1427 1428 1430 1431 1433 1434 1435 1436
1458 1454 1451 1456 1455 1451 1450 1444 1447 1446 1444 1442 1439 1435 1433 1432 1431 1430 1428 1426 1425 1423 1422 1421 1420 1419 1419 1418 1418 1418 1419 1419 1420 1421 1422 1422 1423 1425 1426 1428 1429 1430 1431 1432
1460 1455 1456 1461 1457 1451 1450 1451 1450 1447 1445 1443 1441 1438 1436 1432 1430 1428 1426 1424 1423 1421 1420 1419 1418 1417 1417 1416 1416 1416 1416 1417 1417 1418 1419 1420 1421 1422 1423 1424 1425 1426 1427 1428
1464 1462 1464 1463 1459 1459 1459 1455 1451 1447 1444 1442 1439 1436 1434 1431 1429 1427 1424 1423 1421 1420 1419 1418 1417 1416 1415 1415 1414 1414 1414 1415 1415 1416 1416 1417 1418 1419 1420 1421 1422 1422 1424 1424
1470 1471 1469 1467 1464 1462 1459 1455 1451 1447 1444 1441 1438 1435 1433 1430 1428 1426 1424 1422 1420 1419 1418 1417 1416 1415 1414 1413 1413 1413 1413 1413 1413 1414 1415 1415 1416 1416 1417 1418 1418 1419 1420 1421
1471 1468 1468 1467 1464 1461 1458 1454 1450 1446 1443 1440 1437 1434 1432 1429 1427 1425 1423 1421 1420 1418 1416 1416 1415 1414 1413 1413 1412 1412 1412 1412 1412 1412 1413 1413 1414 1414 1415 1415 1415 1416 1417 1418
1471 1470 1468 1465 1464 1460 1456 1452 1448 1445 1442 1439 1436 1434 1431 1429 1427 1425 1423 1421 1420 1418 1416 1415 1414 1413 1412 1412 1411 1411 1410 1410 1410 1411 1411 1411 1411 1412 1412 1413 1413 1414 1414 1415
1474 1473 1471 1467 1464 1460 1455 1451 1448 1444 1441 1439 1436 1434 1432 1429 1427 1426 1424 1422 1420 1418 1417 1415 1414 1413 1412 1411 1410 1409 1409 1409 1409 1409 1409 1409 1409 1410 1410 1411 1411 1412 1412 1413
1477 1473 1470 1467 1463 1459 1455 1451 1448 1445 1442 1439 1436 1434 1432 1430 1428 1426 1424 1422 1420 1418 1417 1415 1414 1412 1411 1410 1409 1408 1407 1407 1407 1407 1407 1407 1408 1408 1407 1408 1409 1409 1409 1410
1474 1471 1468 1465 1462 1459 1455 1451 1448 1445 1442 1439 1437 1434 1432 1430 1427 1425 1424 1422 1420 1418 1417 1415 1413 1411 1410 1409 1408 1407 1406 1406 1406 1406 1406 1406 1406 1406 1405 1405 1405 1405 1406 1406
1473 1471 1468 1465 1461 1458 1455 1451 1447 1444 1442 1439 1437 1434 1432 1430 1427 1425 1424 1422 1420 1418 1416 1414 1413 1411 1410 1408 1406 1405 1405 1404 1404 1404 1404 1404 1404 1404 1403 1403 1403 1403 1403 1403
1472 1469 1466 1463 1460 1457 1454 1451 1448 1445 1442 1440 1437 1435 1433 1430 1428 1426 1424 1422 1419 1417 1415 1414 1412 1410 1409 1407 1406 1405 1404 1404 1403 1403 1402 1402 1402 1401 1401 1401 1401 1401 1401 1401
1471 1468 1465 1462 1459 1456 1454 1451 1449 1446 1443 1440 1438 1435 1432 1430 1428 1425 1423 1421 1419 1417 1415 1413 1411 1410 1408 1407 1405 1404 1403 1403 1402 1402 1401 1401 1400 1400 1400 1399 1399 1399 1399 1399
1471 1468 1465 1462 1459 1456 1453 1451 1448 1445 1443 1440 1437 1435 1432 1430 1427 1425 1423 1421 1418 1416 1415 1413 1411 1409 1408 1406 1405 1404 1403 1402 1401 1401 1400 1399 1399 1399 1398 1398 1397 1397 1396 1396
1469 1466 1464 1461 1458 1455 1452 1449 1447 1444 1442 1439 1436 1434 1432 1430 1427 1425 1422 1420 1417 1415 1414 1412 1411 1409 1407 1406 1404 1403 1402 1401 1400 1399 1399 1398 1398 1397 1397 1396 1395 1395 1395 1395
1467 1464 1462 1459 1456 1453 1450 1448 1445 1443 1441 1438 1436 1433 1431 1429 1427 1424 1422 1420 1418 1416 1414 1412 1410 1408 1406 1405 1403 1402 1401 1400 1399 1398 1397 1397 1396 1395 1395 1394 1394 1394 1393 1393
1466 1463 1460 1457 1454 1451 1449 1446 1444 1441 1439 1437 1435 1432 1430 1428 1426 1424 1421 1419 1418 1416 1413 1411 1409 1407 1405 1404 1402 1401 1400 1398 1397 1397 1396 1395 1394 1394 1393 1393 1392 1392 1391 1391
1465 1462 1459 1456 1452 1450 1447 1445 1442 1440 1438 1436 1434 1431 1429 1427 1425 1423 1421 1419 1417 1415 1412 1410 1408 1406 1404 1402 1401 1399 1398 1397 1396 1395 1394 1393 1393 1392 1392 1391 1391 1390 1390 1389
1463 1460 1457 1454 1452 1449 1446 1444 1442 1439 1437 1435 1433 1430 1428 1426 1424 1422 1419 1418 1415 1413 1411 1409 1406 1404 1402 1400 1399 1397 1396 1395 1394 1393 1392 1392 1391 1391 1390 1389 1389 1388 1388 1387
1461 1459 1456 1453 1451 1448 1445 1443 1441 1439 1436 1434 1432 1430 1427 1425 1423 1421 1419 1416 1414 1412 1409 1407 1405 1403 1401 1399 1397 1396 1395 1394 1393 1392 1391 1390 1390 1389 1388 1388 1387 1387 1386 1386
1460 1457 1454 1452 1449 1446 1444 1442 1440 1437 1435 1433 1431 1428 1426 1424 1421 1419 1417 1414 1412 1410 1408 1406 1403 1401 1399 1397 1396 1395 1394 1392 1391 1391 1390 1389 1388 1388 1387 1386 1386 1385 1385 1384
1458 1455 1453 1451 1448 1446 1443 1441 1438 1436 1433 1431 1429 1427 1424 1422 1420 1417 1415 1413 1411 1408 1406 1404 1402 1400 1398 1396 1395 1394 1393 1391 1390 1390 1389 1388 1387 1386 1385 1385 1384 1384 1383 1383
1456 1454 1452 1450 1447 1445 1442 1440 1437 1435 1432 1430 1427 1425 1423 1420 1418 1416 1413 1411 1409 1407 1405 1402 1401 1399 1397 1395 1394 1393 1392 1391 1390 1389 1388 1387 1386 1385 1384 1384 1383 1382 1382 1381